Find Starlink 6051

NORAD ID: 56463 Int'l Des: 2023-064 Owner: SPXS Country: US Constellation: starlink operational
LEOCIRCULAR

現在のビュー

3D地球を読み込み中...

About Starlink 6051

Starlink 6051 (NORAD 56463) is a starlink constellation satellite (v1.5) launched May 10, 2023 by SPXS of US. It operates in LEO, CIRCULAR orbit with a mass of 305.00 kg.

次回通過

Passes for default location (London). Set your location on the main map for personalized predictions.

高度履歴

Loading altitude history...

軌道要素

1 56463U 23064R 26264.29599280 -.00000514 00000-0 -35317-4 0 9998
2 56463 70.0010 11.3514 0003234 269.2335 90.8454 14.98326746184543
Epoch: Sep 21, 2026 • Age: 8 hours

現在のステータス

高度 583.0 km
遠地点 / 近地点 N/A
速度 7.57 km/s
衛星直下点 56.81°N, 172.65°E
打ち上げ日 May 10, 2023
運用期間 3.3 years
タイプ internet

技術仕様

分類 Payload
質量 305.00 kg
乾燥質量 290.00 kg
長さ 0.20 m
スパン 9.00 m
形状 ? Box + pan
製造者 SPXS
バスタイプ Starlink
フェーズステータス In Orbit
所有者/国 SPXS/US

Most Searched